Location: Baudres
(47.0578°N, 1.5782°E)
Time: 06:36:19
(UTC+00:00)

Daily predictions for brighter satellites

Satellite Brightness Start Highest point End
(mag) Time Altitude Azimuth Time Altitude Azimuth Time Altitude Azimuth
Cosmos 1607 4.5 20:15:25 10° SW 20:21:35 67° NW 20:27:46 10° NNE
Gbstr 26 Del rocket 4.3 20:17:36 10° W 20:22:05 50° N 20:27:36 10° ENE
TSX-5 3.5 20:19:09 10° NNW 20:22:14 56° ENE 20:25:33 10° SE
Cosmos 1570 Rocket 4.5 20:17:15 10° NNW 20:22:29 63° WSW 20:27:38 10° S
NOSS 3-4 (A) 4.0 20:18:05 10° NW 20:24:48 71° NE 20:32:45 10° SE
NOSS 3-4 (C) 4.0 20:18:07 10° NW 20:24:50 70° NE 20:32:45 10° SE
Terra 1.9 20:20:15 10° SSE 20:24:55 68° ENE 20:29:37 10° N
Cosmos 1943 Rocket 4.5 20:23:26 10° WSW 20:28:17 30° NW 20:33:12 10° NNE
Cosmos 1634 Rocket 4.0 20:22:18 10° N 20:28:31 90° SW 20:34:41 10° S
SPOT 3 Rocket 4.5 20:24:06 10° SE 20:28:44 34° ENE 20:33:24 10° N
Cosmos 1606 3.8 20:26:23 10° NNW 20:29:11 33° W 20:31:58 10° SSW
Spot 2 Rocket 3.8 20:27:54 10° SSE 20:32:51 55° ENE 20:37:49 10° N
IRS-1A Rocket 4.3 20:27:24 10° SSE 20:32:53 76° ENE 20:38:28 10° NNW
Sich 1 Rocket 4.4 20:29:19 10° N 20:33:33 37° ENE 20:37:45 10° SE
Cosmos 1486 Rocket 4.1 20:30:31 10° SSW 20:35:47 88° ESE 20:41:08 10° NNE
USA 186 4.1 20:34:21 10° SW 20:36:22 18° W 20:38:23 10° NW
SPOT 5 4.1 20:32:35 10° S 20:37:36 46° W 20:42:44 10° NNW
Cosmos 1818 3.9 20:32:18 10° NNW 20:37:42 59° NE 20:42:53 11° SE
Cosmos 1674 Rocket 3.9 20:34:04 10° SSE 20:38:17 48° E 20:42:34 10° NNE
ERS-1 Rocket 3.2 20:39:12 10° S 20:44:10 72° WSW 20:49:11 10° NNW
USA 245 3.4 20:40:54 10° SSE 20:45:06 61° ENE 20:48:28 10° N
Cosmos 2279 Rocket 4.0 20:39:03 10° N 20:45:19 84° E 20:51:35 10° S
Cosmos 2297 3.7 20:42:29 10° SSW 20:48:05 74° ESE 20:53:47 10° NNE
Meteor 1-21 Rocket 4.2 20:42:34 10° S 20:48:11 69° E 20:53:44 10° NNE
Okean-O 2.9 20:47:04 10° S 20:51:24 67° WSW 20:55:47 10° NNW
Cosmos 1812 3.7 20:49:16 10° NNE 20:51:53 23° ENE 20:53:43 14° ESE
Cosmos 1378 Rocket 3.5 20:49:58 10° S 20:54:16 87° W 20:58:34 10° N
Cosmos 1656 Rocket 4.2 20:48:48 10° SW 20:54:18 62° WNW 20:59:45 10° NNE
BlueWalker 3 3.6 20:54:08 10° WNW 20:57:27 30° N 21:00:44 10° ENE
Okean O Rocket 2.7 20:54:02 10° S 20:58:10 43° W 21:02:22 10° NNW
Cosmos 990 Rocket 4.3 20:53:41 10° S 20:58:36 47° ESE 21:03:35 10° NNE
Cosmos 1025 Rocket 3.3 20:54:38 10° SSE 20:58:48 49° E 21:03:02 10° NNE
In-Cosmos 22 Rocket 4.5 21:05:24 10° SSW 21:11:13 77° WNW 21:16:59 10° N
Cosmos 1503 Rocket 4.5 21:12:56 10° SSW 21:18:03 63° WNW 21:23:11 10° NNE
Cosmos 2369 Rocket 2.7 21:17:43 10° SW 21:23:22 65° WNW 21:29:03 10° NNE
Cosmos 1354 Rocket 4.2 21:22:19 10° SSW 21:27:32 73° WNW 21:32:47 10° NNE
ASTEX 1 3.4 21:22:40 10° N 21:27:34 85° W 21:32:11 11° S
SAR-Lupe-2 3.9 21:29:36 20° S 21:31:59 63° WSW 21:35:34 10° NNW
Cosmos 2297 Rocket 3.9 21:30:21 10° N 21:34:48 23° NE 21:39:13 10° E
ISS -2.8 21:31:43 10° WNW 21:34:57 45° NNE 21:37:42 13° E
DELTA 2 R/B (1) 4.2 21:30:25 10° SW 21:35:20 33° SSE 21:38:43 18° ESE
Cosmos 1937 Rocket 4.4 21:34:18 22° SE 21:36:14 28° E 21:40:33 10° NE
Ariane Rocket 3.1 21:32:58 18° S 21:36:49 73° WSW 21:41:53 10° NNW
COBE Rocket 3.8 21:32:52 10° NNE 21:37:30 63° E 21:40:36 20° S
Okean 2 Rocket 4.1 21:35:07 10° NNW 21:39:16 42° W 21:42:59 12° SSW
Cosmos 2098 Rocket 3.8 21:36:56 10° NNE 21:39:45 26° ENE 21:40:46 23° ESE
Tiangong 0.0 21:37:17 10° SW 21:38:13 15° SSW 21:38:13 15° SSW
CZ-4C R/B 1.7 21:40:57 10° SW 21:45:13 86° SE 21:50:40 10° NE
Cosmos 44 3.1 21:45:58 10° SW 21:50:16 78° NW 21:54:43 10° NE
Lacrosse 5 rocket 3.8 21:47:36 10° NW 21:50:30 19° N 21:53:25 10° NE
Cosmos 1515 2.5 21:48:28 10° N 21:51:04 90° E 21:51:23 65° S
Okean 1 Rocket 4.2 21:49:09 10° NNW 21:53:13 39° W 21:56:28 15° SSW
Cosmos 1975 Rocket 3.1 21:53:28 29° SSE 21:55:28 61° E 21:59:44 10° NNE
Nadezhda 4 Rocket 4.4 21:51:50 10° SSW 21:58:04 63° WNW 22:04:23 10° N
Cosmos 2228 3.3 21:57:31 10° N 22:01:39 51° ENE 22:03:10 33° SE
Terra 4.3 22:00:10 10° SW 22:02:55 15° W 22:05:41 10° NW
Cosmos 1455 Rocket 3.3 22:00:36 10° NNW 22:04:51 62° W 22:07:04 27° SSW
Cosmos 2285 Rocket 4.1 22:00:41 10° SSW 22:07:03 78° WNW 22:13:31 10° NNE
Cosmos 2227 Rocket 4.2 22:03:17 10° N 22:07:27 20° NE 22:11:36 10° E
Cosmos 1867 3.5 22:02:46 12° SSW 22:07:47 69° ESE 22:13:14 10° NE
Gbstr 26 Del rocket 3.9 22:04:03 10° WNW 22:09:11 68° NNE 22:15:19 11° ESE
BREEZE M DEB (TANK) 2.1 22:05:47 10° WSW 22:09:59 60° SSE 22:10:09 58° SE
BREEZE-M DEB (TANK) 3.6 22:05:54 10° W 22:15:51 72° NNW 22:19:05 10° ENE
Cosmos 2026 Rocket 4.0 22:12:17 19° SSW 22:16:46 79° W 22:22:51 10° N
Cosmos 1898 Rocket 3.4 22:16:18 22° SSW 22:19:46 88° ESE 22:25:03 10° NNE
Iridium 82 4.4 22:16:47 10° N 22:20:08 70° W 22:20:46 52° SSW
CZ-2C R/B 4.3 22:17:59 10° NNE 22:22:30 42° E 22:23:40 35° SE
USA 81 4.1 22:25:23 27° SSW 22:28:20 75° W 22:33:38 10° N
ARIANE 5 R/B 3.0 22:30:39 37° SE 22:32:04 54° ENE 22:36:24 10° N
Cosmos 1553 Rocket 4.0 22:26:32 10° N 22:32:50 80° E 22:35:55 33° SSE
BlueWalker 3 2.3 22:32:00 10° WNW 22:35:37 58° NNE 22:36:56 34° E
SL-08 ROCKET BODY 4.5 22:36:29 34° SSE 22:38:57 60° E 22:44:45 10° NNE
Cosmos 1092 Rocket 4.4 22:35:06 18° SSW 22:39:49 60° WNW 22:46:04 10° N
CZ-4C R/B 3.0 22:42:30 10° NNE 22:46:11 79° ESE 22:46:38 65° SSE
DELTA 2 DEB (DPAF) 4.1 22:42:19 10° N 22:46:11 62° WNW 22:47:30 38° SW
ATLAS 2AS CENTAUR R/B 4.2 22:42:29 10° NNW 22:48:28 31° NNE 22:54:21 10° E
Cosmos 1536 Rocket 3.7 22:48:20 50° SE 22:49:09 60° E 22:53:31 10° NNE
Cosmos 1656 3.6 22:47:10 33° SSW 22:49:45 78° ESE 22:55:18 10° NNE
RESURS DK-1 2.1 22:47:54 10° NNW 22:51:55 89° SW 22:52:29 64° SSE
S3M 4.3 22:47:30 10° N 22:53:45 58° ENE 22:56:23 34° SE
Cosmos 2263 Rocket 4.1 22:50:36 10° N 22:55:04 23° NE 22:59:30 10° E
Cosmos 1544 Rocket 3.8 22:51:03 10° NNW 22:55:22 60° W 22:56:31 43° SSW
Cosmos 1606 Rocket 4.1 22:53:42 10° N 22:57:55 46° ENE 22:58:50 39° ESE
Cosmos 2058 2.7 23:01:15 61° ESE 23:01:33 64° E 23:05:27 10° NNE
Cosmos 1400 Rocket 2.7 22:58:53 10° NNW 23:02:40 63° W 23:03:02 58° SW
Meteor 2-20 Rocket 4.4 22:56:44 10° NNW 23:02:46 77° W 23:05:05 38° S
USA 215 3.6 22:58:21 10° ESE 23:04:47 63° NNE 23:11:15 10° NW
Cosmos 1782 2.5 23:05:39 10° N 23:09:20 75° E 23:09:26 74° E
Cosmos 2112 Rocket 4.1 23:05:34 10° NNW 23:10:49 69° WSW 23:12:22 45° S
ISS -2.5 23:08:28 10° WNW 23:10:32 32° W 23:10:32 32° W
Cosmos 1937 Rocket 4.5 23:14:20 17° SW 23:17:54 42° WNW 23:22:46 10° N
Cosmos 1862 3.5 23:18:16 48° E 23:18:16 48° E 23:21:38 10° NNE
Cosmos 2297 Rocket 2.1 23:13:47 10° NNW 23:19:27 76° WSW 23:21:13 45° S
DELTA 2 R/B (1) 4.5 23:15:58 10° WSW 23:19:25 31° SW 23:19:25 31° SW
Cosmos 1726 Rocket 3.9 23:16:38 10° N 23:21:12 60° ENE 23:22:11 48° SE
Cosmos 1680 Rocket 4.0 23:16:18 10° NNW 23:21:21 47° WSW 23:22:44 38° SW
ALOS 2 2.5 23:22:00 61° S 23:22:45 83° WSW 23:27:10 10° NNW
Cosmos 2058 Rocket 4.3 23:18:51 10° N 23:22:53 32° ENE 23:23:59 28° ESE
PSLV R/B 3.8 23:19:06 10° NNE 23:23:45 62° E 23:24:32 53° SE
Lacrosse 5 rocket 2.5 23:25:01 10° NW 23:28:44 38° NNE 23:31:05 19° E
Cosmos 1980 Rocket 3.3 23:28:23 27° ESE 23:29:07 28° ESE 23:33:49 10° NE
MetOp-A 4.3 23:33:09 33° WSW 23:33:16 33° W 23:36:44 10° NNW
Cosmos 1697 Rocket 2.7 23:32:03 46° S 23:33:33 64° ESE 23:39:10 10° NNE
CZ-4C R/B 4.3 23:30:19 10° W 23:34:19 25° NNW 23:39:11 10° NNE
Cosmos 1356 Rocket 3.6 23:30:53 10° N 23:34:51 55° ENE 23:35:17 51° ESE
Cosmos 2360 4.4 23:33:07 31° SW 23:35:52 71° WNW 23:41:35 10° NNE
Cosmos 1892 Rocket 3.5 23:39:40 61° SE 23:40:05 65° E 23:44:21 10° NNE
CZ-2C R/B 4.3 23:36:52 15° ESE 23:40:20 27° ENE 23:44:58 10° N
Spot 1 4.2 23:36:34 10° NNE 23:41:21 72° ESE 23:42:05 59° SSE
PSLV R/B 4.2 23:39:52 10° NNE 23:43:44 49° E 23:43:44 49° E
Cosmos 1441 Rocket 3.5 23:44:49 49° ENE 23:44:49 49° ENE 23:47:45 10° NNE
Meteor 2-3 Rocket 3.9 23:46:45 44° SSE 23:48:28 65° E 23:54:11 10° NNE
GEOS 3 Rocket 3.5 23:44:36 10° NE 23:49:54 83° SE 23:51:46 42° SSW
Cosmos 2227 Rocket 2.1 23:46:33 10° NNW 23:52:17 88° WSW 23:54:06 45° SSE
Cosmos 1125 Rocket 3.7 23:52:54 47° SSE 23:53:55 55° ESE 23:59:03 10° NNE
